[[{"header":{"parameterUnit":"m.s-1","parameterCategory":1,"la1":30.2991,"la2":30.254,"lo1":-89.0895,"lo2":-89.0444,"dy":0.0017,"dx":0.0017,"nx":28,"ny":28,"refTime":"2023-09-02T09:00:00:Z","depth":0,"parameterNumber":2,"parameterNumberName":"U-component_of_WINDS"},"data":[0,0,0,0,0,0,0,0,0,0,0,0,0,0,0,0,0,0,0,0,0,0,0,0,0,0,0,0,0,0,0,0,0,0,0,0,0,0,0,0,0,0,0,0,0,0,0,0,0,0,0,0,0,0,0,0,0,0,-1.4549,-1.455,0,-1.4591,-1.4591,-1.4592,-1.4622,-1.4622,-1.4623,-1.4623,-1.4662,-1.4663,-1.4664,0,0,0,0,0,0,0,0,0,0,0,0,0,-1.4495,-1.4496,-1.4549,-1.455,-1.455,-1.4591,-1.4591,-1.4592,-1.4622,-1.4622,-1.4623,-1.4623,-1.4662,-1.4663,-1.4664,0,0,0,0,0,0,0,0,0,0,0,0,0,-1.4525,-1.4496,-1.4549,-1.457,-1.4573,-1.459,-1.4591,-1.4592,-1.4622,-1.4622,-1.4623,-1.4623,-1.4662,-1.4663,-1.4664,-1.4663,0,0,-1.4668,-1.4668,0,0,0,0,0,0,0,0,-1.4524,-1.4527,-1.4567,-1.4569,-1.4572,-1.4602,-1.4586,-1.4616,-1.4622,-1.4603,-1.4623,-1.4623,-1.4642,-1.4645,-1.4651,-1.4665,-1.4667,-1.4668,-1.4669,-1.4669,-1.467,0,0,0,0,0,0,0,-1.4521,-1.4526,-1.4566,-1.4567,-1.457,-1.4577,-1.4582,-1.4592,-1.4619,-1.4605,-1.4607,-1.4612,-1.4643,-1.465,-1.4653,-1.4668,-1.4668,-1.4669,-1.467,-1.467,-1.4683,-1.4683,0,0,0,0,0,0,-1.4516,-1.4524,-1.4564,-1.4567,-1.4548,-1.4578,-1.4583,-1.4592,-1.462,-1.4624,-1.4611,-1.4613,-1.4648,-1.4651,-1.4654,-1.4655,-1.4669,-1.467,-1.4671,-1.4684,-1.4683,-1.4683,0,0,0,0,0,0,-1.4515,-1.452,-1.4563,-1.4546,-1.4552,-1.4578,-1.4587,-1.4592,-1.4599,-1.4625,-1.4629,-1.4614,-1.4648,-1.4652,-1.4661,-1.4657,-1.4671,-1.4672,-1.4684,-1.4683,-1.4683,-1.4656,0,0,0,0,0,0,-1.4513,-1.4519,-1.4519,-1.4546,-1.4553,-1.4569,-1.4587,-1.4593,-1.4602,-1.4604,-1.4628,-1.4632,-1.4649,-1.4659,-1.4662,-1.4659,-1.4673,-1.4685,-1.4684,-1.4683,-1.4658,-1.4655,-1.4653,0,0,0,0,0,-1.4511,-1.4509,-1.4519,-1.4524,-1.4554,-1.4569,-1.4573,-1.4593,-1.4601,-1.4601,-1.4618,-1.4631,-1.4657,-1.466,-1.4664,-1.466,-1.4685,-1.4684,-1.4683,-1.4659,-1.4656,-1.4653,0,0,0,0,0,0,-1.448,-1.4513,-1.4524,-1.4531,-1.4547,-1.4574,-1.4575,-1.4589,-1.4602,-1.4604,-1.4628,-1.4633,-1.4639,-1.4651,-1.4653,-1.4661,-1.4673,-1.4673,-1.4653,-1.465,-1.4647,-1.4644,-1.4674,0,0,0,0,0,-1.4475,-1.4485,-1.4513,-1.4516,-1.4524,-1.4548,-1.4555,-1.457,-1.4587,-1.4594,-1.4611,-1.4626,-1.4638,-1.4645,-1.4657,-1.466,-1.4666,-1.466,-1.4657,-1.4655,-1.4654,-1.4657,-1.4655,-1.468,-1.468,-1.468,0,0,-1.4462,-1.4482,-1.4486,-1.4511,-1.4525,-1.4534,-1.4553,-1.4563,-1.457,-1.4595,-1.4604,-1.4617,-1.4636,-1.4642,-1.4646,-1.4652,-1.4649,-1.4654,-1.4652,-1.4652,-1.4656,-1.4653,-1.4651,-1.4679,-1.468,-1.468,0,0,-1.4445,-1.4461,-1.4465,-1.4479,-1.4501,-1.4517,-1.4518,-1.4544,-1.4554,-1.4564,-1.4583,-1.4592,-1.4611,-1.4624,-1.4633,-1.4622,-1.4635,-1.4625,-1.4611,-1.4613,-1.4611,-1.461,-1.4605,-1.4603,-1.4624,-1.4624,-1.4624,0,-1.4426,-1.4442,-1.4465,-1.4474,-1.4484,-1.4508,-1.4513,-1.4525,-1.4549,-1.4555,-1.4563,-1.4588,-1.4603,-1.4612,-1.4609,-1.4616,-1.4618,-1.4622,-1.461,-1.4609,-1.4607,-1.4603,-1.4602,-1.4623,-1.4623,-1.4623,-1.4623,0,-1.4418,-1.4429,-1.443,-1.4454,-1.4464,-1.4471,-1.4494,-1.4502,-1.4516,-1.4531,-1.4541,-1.456,-1.4576,-1.458,-1.4593,-1.4591,-1.4595,-1.4606,-1.4618,-1.4603,-1.46,-1.4598,-1.4621,-1.4621,-1.4622,-1.4622,0,0,-1.4381,-1.4419,-1.4418,-1.443,-1.4456,-1.4465,-1.4472,-1.4489,-1.4495,-1.4511,-1.4518,-1.4535,-1.4545,-1.4556,-1.457,-1.4573,-1.4562,-1.4584,-1.4584,-1.4578,-1.4561,-1.4552,-1.455,-1.4572,-1.4572,-1.4571,-1.456,0,-1.4366,-1.4382,-1.4404,-1.4412,-1.4422,-1.4446,-1.4453,-1.447,-1.4485,-1.4495,-1.4511,-1.4523,-1.4536,-1.4543,-1.4546,-1.4563,-1.4559,-1.4564,-1.4577,-1.4577,-1.4571,-1.4548,-1.4538,-1.4526,-1.4558,-1.4558,-1.4558,0,-1.4351,-1.4367,-1.4377,-1.4403,-1.4408,-1.4414,-1.4431,-1.4442,-1.4461,-1.4472,-1.4484,-1.4501,-1.451,-1.4521,-1.4534,-1.4537,-1.4544,-1.4553,-1.4553,-1.4554,-1.4566,-1.4548,-1.4523,-1.4521,-1.4556,-1.4556,-1.4557,0,-1.4322,-1.4346,-1.4355,-1.4364,-1.4395,-1.4398,-1.4411,-1.4431,-1.444,-1.4456,-1.4462,-1.4478,-1.4486,-1.4498,-1.4519,-1.4526,-1.4529,-1.4542,-1.4537,-1.4537,-1.4536,-1.4535,-1.451,-1.4542,-1.4542,-1.4542,-1.4542,0,-1.4303,-1.4307,-1.4342,-1.4347,-1.4353,-1.4379,-1.4384,-1.4399,-1.4417,-1.4425,-1.4447,-1.4454,-1.4481,-1.4491,-1.4508,-1.4515,-1.4519,-1.4527,-1.4531,-1.4525,-1.4524,-1.4529,-1.453,-1.4541,-1.4541,-1.4542,-1.4542,0,-1.427,-1.4294,-1.4305,-1.4334,-1.4342,-1.4345,-1.4369,-1.4375,-1.4392,-1.4403,-1.4406,-1.4433,-1.4446,-1.4468,-1.4488,-1.4499,-1.4503,-1.451,-1.4496,-1.4499,-1.4492,-1.4492,-1.4469,-1.4467,-1.45,-1.45,-1.45,0,-1.4256,-1.426,-1.429,-1.4298,-1.4311,-1.4323,-1.4332,-1.4358,-1.4367,-1.439,-1.4393,-1.4409,-1.4422,-1.4442,-1.4463,-1.4478,-1.4485,-1.4476,-1.4488,-1.4481,-1.4484,-1.4483,-1.4484,-1.4473,-1.4472,-1.4472,-1.4472,0,-1.4228,-1.424,-1.4253,-1.4272,-1.4283,-1.4298,-1.4314,-1.4319,-1.4348,-1.4358,-1.4372,-1.4383,-1.4404,-1.4418,-1.4437,-1.445,-1.4465,-1.4469,-1.4468,-1.446,-1.4452,-1.4456,-1.4488,-1.4468,-1.4469,-1.4469,-1.4469,-1.4469,-1.4203,-1.4208,-1.4231,-1.4245,-1.4261,-1.4276,-1.4283,-1.4302,-1.4314,-1.4334,-1.4348,-1.4362,-1.4382,-1.4408,-1.4421,-1.4431,-1.4438,-1.4437,-1.4437,-1.4436,-1.4433,-1.4452,-1.4435,-1.4435,-1.4435,-1.4435,-1.4435,0,-1.4175,-1.4191,-1.4205,-1.4228,-1.4239,-1.4255,-1.4274,-1.4282,-1.4294,-1.4312,-1.4326,-1.4343,-1.4358,-1.438,-1.4396,-1.4401,-1.4408,-1.4404,-1.4403,-1.4406,-1.4427,-1.4425,-1.4398,-1.4398,-1.4398,-1.4398,-1.4398,-1.4398,-1.4162,-1.4172,-1.4186,-1.4204,-1.422,-1.4234,-1.4243,-1.4257,-1.4272,-1.429,-1.4303,-1.4318,-1.4338,-1.4356,-1.437,-1.4376,-1.4381,-1.4374,-1.4382,-1.4401,-1.4404,-1.4408,-1.4406,-1.4375,-1.4375,-1.4361,-1.4361,-1.4361]},{"header":{"parameterUnit":"m.s-1","parameterCategory":1,"la1":30.2991,"la2":30.254,"lo1":-89.0895,"lo2":-89.0444,"dy":0.0017,"dx":0.0017,"nx":28,"ny":28,"refTime":"2023-09-02T09:00:00:Z","depth":0,"parameterNumber":3,"parameterNumberName":"V-component_of_WINDS"},"data":[0,0,0,0,0,0,0,0,0,0,0,0,0,0,0,0,0,0,0,0,0,0,0,0,0,0,0,0,0,0,0,0,0,0,0,0,0,0,0,0,0,0,0,0,0,0,0,0,0,0,0,0,0,0,0,0,0,0,0.2433,0.2433,0,0.2424,0.2423,0.2423,0.2372,0.237,0.2369,0.2368,0.2361,0.2362,0.2363,0,0,0,0,0,0,0,0,0,0,0,0,0,0.2411,0.2411,0.2433,0.2433,0.2433,0.2424,0.2423,0.2423,0.2372,0.237,0.2369,0.2367,0.2361,0.2362,0.2363,0,0,0,0,0,0,0,0,0,0,0,0,0,0.2413,0.2412,0.2434,0.2406,0.2404,0.2424,0.2423,0.2423,0.2372,0.237,0.2368,0.2367,0.2361,0.2362,0.2364,0.241,0,0,0.2368,0.2369,0,0,0,0,0,0,0,0,0.2413,0.2414,0.241,0.2408,0.2405,0.2397,0.2413,0.2419,0.2373,0.2384,0.2368,0.2366,0.2375,0.2375,0.2377,0.241,0.2409,0.2368,0.2369,0.237,0.237,0,0,0,0,0,0,0,0.2413,0.2414,0.243,0.241,0.2407,0.2396,0.2394,0.2414,0.239,0.2383,0.2379,0.2379,0.2373,0.2376,0.2377,0.2409,0.2368,0.237,0.237,0.2371,0.2478,0.248,0,0,0,0,0,0,0.2416,0.2414,0.243,0.2429,0.2404,0.2397,0.2395,0.2402,0.239,0.2386,0.238,0.2376,0.2375,0.2375,0.2377,0.2429,0.237,0.2371,0.2372,0.2476,0.2479,0.2481,0,0,0,0,0,0,0.2416,0.2418,0.243,0.2421,0.2421,0.24,0.2407,0.2402,0.2405,0.2388,0.2384,0.2387,0.2373,0.2374,0.2402,0.2428,0.2372,0.2373,0.2474,0.2477,0.248,0.2536,0,0,0,0,0,0,0.2415,0.2418,0.2435,0.2421,0.2422,0.2455,0.2409,0.2403,0.2407,0.2402,0.2393,0.239,0.2372,0.24,0.2403,0.2429,0.2374,0.2472,0.2475,0.2479,0.2532,0.254,0.2548,0,0,0,0,0,0.2415,0.2452,0.2436,0.2438,0.2442,0.2457,0.2457,0.2434,0.241,0.2427,0.2415,0.239,0.2425,0.2403,0.2406,0.2434,0.247,0.2474,0.2479,0.2528,0.2539,0.2548,0,0,0,0,0,0,0.247,0.245,0.2432,0.2466,0.2463,0.2448,0.2468,0.2446,0.2452,0.2447,0.2419,0.2418,0.2449,0.2444,0.242,0.2477,0.2443,0.2448,0.2479,0.249,0.2498,0.2498,0.2376,0,0,0,0,0,0.2486,0.2499,0.248,0.2512,0.2512,0.249,0.2496,0.2478,0.2475,0.2474,0.2465,0.2464,0.2474,0.2482,0.249,0.2531,0.2528,0.2551,0.2559,0.2566,0.2571,0.2592,0.2602,0.2495,0.2495,0.2495,0,0,0.252,0.251,0.252,0.2523,0.2519,0.2533,0.249,0.2507,0.2517,0.2477,0.2501,0.2495,0.2492,0.2525,0.254,0.2522,0.26,0.2572,0.2577,0.2579,0.2597,0.2607,0.2616,0.2498,0.2498,0.2497,0,0,0.2589,0.2582,0.2608,0.2604,0.2598,0.2584,0.259,0.2578,0.2571,0.2595,0.2565,0.2578,0.2596,0.2595,0.2597,0.2664,0.2641,0.2668,0.2711,0.2731,0.274,0.2747,0.277,0.2779,0.2673,0.2673,0.2673,0,0.2632,0.265,0.2624,0.2642,0.2645,0.2607,0.2633,0.2632,0.2629,0.2632,0.2612,0.2634,0.263,0.2662,0.2679,0.2682,0.2688,0.2669,0.274,0.2747,0.2754,0.2776,0.2785,0.2676,0.2676,0.2676,0.2675,0,0.2703,0.2717,0.2738,0.2735,0.274,0.2762,0.274,0.2748,0.273,0.2718,0.2743,0.2736,0.2742,0.2749,0.2732,0.2779,0.2768,0.2745,0.271,0.2767,0.2788,0.2796,0.2681,0.268,0.2679,0.2678,0,0,0.2807,0.2788,0.2796,0.2794,0.2785,0.2795,0.2816,0.2821,0.2828,0.2828,0.2845,0.2861,0.2839,0.2841,0.2824,0.2842,0.2895,0.2816,0.2815,0.283,0.2946,0.2963,0.2973,0.288,0.2881,0.2882,0.2946,0,0.2872,0.2904,0.2881,0.2918,0.293,0.2895,0.2913,0.291,0.2899,0.2909,0.2897,0.2909,0.2879,0.288,0.2896,0.2885,0.2918,0.288,0.2895,0.2896,0.2897,0.2984,0.3003,0.3063,0.2954,0.2955,0.2956,0,0.2952,0.2953,0.2991,0.2978,0.2983,0.2999,0.3001,0.3011,0.3006,0.2997,0.2999,0.2977,0.2997,0.2963,0.299,0.2965,0.297,0.2966,0.2967,0.2968,0.2929,0.2987,0.3082,0.3091,0.2968,0.2967,0.2967,0,0.3023,0.3035,0.3059,0.3058,0.3044,0.3056,0.3051,0.3044,0.3049,0.3051,0.3053,0.3059,0.3062,0.3067,0.3047,0.3024,0.3077,0.3041,0.307,0.3071,0.3083,0.3083,0.318,0.3087,0.3087,0.3087,0.3087,0,0.3098,0.3122,0.309,0.3105,0.3132,0.3105,0.3132,0.3124,0.3118,0.3131,0.3102,0.3115,0.3088,0.3098,0.3083,0.3108,0.311,0.3104,0.3099,0.3106,0.3107,0.3109,0.3104,0.3089,0.3089,0.3088,0.3088,0,0.3181,0.3161,0.3185,0.3169,0.3165,0.3186,0.3172,0.3186,0.3173,0.319,0.3192,0.3172,0.3183,0.3164,0.3173,0.3162,0.3197,0.3186,0.3198,0.3195,0.3225,0.3222,0.3327,0.3339,0.3239,0.324,0.3241,0,0.323,0.3248,0.3234,0.3239,0.3235,0.3246,0.3249,0.3224,0.3229,0.3225,0.3239,0.3247,0.3252,0.3271,0.3258,0.3265,0.3254,0.329,0.3255,0.326,0.3254,0.3253,0.3254,0.3297,0.3298,0.3299,0.33,0,0.3319,0.3308,0.3313,0.3316,0.3321,0.3322,0.332,0.3327,0.33,0.3308,0.3318,0.3322,0.333,0.3338,0.3341,0.3337,0.3314,0.3311,0.3318,0.3325,0.3331,0.3328,0.3217,0.3309,0.3308,0.3308,0.3307,0.3307,0.3386,0.34,0.3392,0.3399,0.3395,0.3395,0.3406,0.3394,0.3401,0.3405,0.339,0.3403,0.3398,0.34,0.3398,0.3408,0.3393,0.3403,0.3405,0.3408,0.3413,0.333,0.3409,0.3409,0.3409,0.3408,0.3408,0,0.3473,0.3465,0.3472,0.3471,0.3477,0.3454,0.3451,0.3458,0.347,0.3466,0.3471,0.3483,0.349,0.3478,0.3483,0.3494,0.3484,0.3497,0.3496,0.3495,0.3427,0.342,0.3505,0.3505,0.3505,0.3505,0.3505,0.3505,0.3519,0.3541,0.3528,0.3548,0.3541,0.3553,0.3553,0.3553,0.3549,0.3563,0.3569,0.356,0.3553,0.3558,0.3564,0.356,0.3564,0.358,0.3572,0.3509,0.35,0.3491,0.3484,0.3581,0.3581,0.3639,0.364,0.364]}]]